Time,TemperatureF,DewpointF,PressureIn,WindDirection,WindDirectionDegrees,WindSpeedMPH,WindSpeedGustMPH,Humidity,HourlyPrecipIn,Conditions,Clouds,dailyrainin,SoftwareType,DateUTC
2013-01-13 00:11:00,37.5,37.0,30.13,ENE,72,0.0,0.0,96,0.00,,,0.00,weatherlink.com 1.10,2013-01-13 05:11:00,
2013-01-13 00:26:00,37.5,37.0,30.12,ENE,72,0.0,0.0,96,0.00,,,0.00,weatherlink.com 1.10,2013-01-13 05:26:00,
2013-01-13 00:41:00,37.3,36.0,30.12,ENE,72,0.0,0.0,96,0.00,,,0.00,weatherlink.com 1.10,2013-01-13 05:41:00,
2013-01-13 00:56:00,37.4,36.0,30.12,ENE,72,0.0,0.0,96,0.00,,,0.00,weatherlink.com 1.10,2013-01-13 05:56:00,
2013-01-13 01:11:00,37.2,36.0,30.12,ENE,72,0.0,0.0,96,0.00,,,0.00,weatherlink.com 1.10,2013-01-13 06:11:00,
2013-01-13 01:26:00,37.1,36.0,30.12,ENE,72,0.0,0.0,96,0.00,,,0.00,weatherlink.com 1.10,2013-01-13 06:26:00,
2013-01-13 01:41:00,37.1,36.0,30.12,ENE,72,0.0,0.0,96,0.00,,,0.00,weatherlink.com 1.10,2013-01-13 06:41:00,
2013-01-13 01:56:00,36.9,36.0,30.13,ENE,72,0.0,0.0,96,0.00,,,0.00,weatherlink.com 1.10,2013-01-13 06:56:00,
2013-01-13 02:11:00,36.9,36.0,30.12,ENE,72,0.0,0.0,96,0.00,,,0.00,weatherlink.com 1.10,2013-01-13 07:11:00,
2013-01-13 02:26:00,36.9,36.0,30.11,ENE,72,0.0,0.0,96,0.00,,,0.00,weatherlink.com 1.10,2013-01-13 07:26:00,
2013-01-13 02:41:00,36.6,36.0,30.11,ENE,72,0.0,0.0,96,0.00,,,0.00,weatherlink.com 1.10,2013-01-13 07:41:00,
2013-01-13 02:56:00,36.6,36.0,30.10,ENE,72,0.0,0.0,96,0.00,,,0.00,weatherlink.com 1.10,2013-01-13 07:56:00,
2013-01-13 03:11:00,36.4,35.0,30.10,ENE,72,0.0,0.0,96,0.00,,,0.00,weatherlink.com 1.10,2013-01-13 08:11:00,
2013-01-13 03:26:00,36.8,36.0,30.09,South,172,0.0,0.0,97,0.00,,,0.00,weatherlink.com 1.10,2013-01-13 08:26:00,
2013-01-13 03:41:00,36.6,36.0,30.09,South,172,0.0,0.0,96,0.00,,,0.00,weatherlink.com 1.10,2013-01-13 08:41:00,
2013-01-13 03:56:00,36.4,35.0,30.10,South,172,0.0,0.0,96,0.00,,,0.00,weatherlink.com 1.10,2013-01-13 08:56:00,
2013-01-13 04:11:00,36.1,35.0,30.10,South,172,0.0,0.0,96,0.00,,,0.00,weatherlink.com 1.10,2013-01-13 09:11:00,
2013-01-13 04:26:00,35.9,35.0,30.11,South,172,0.0,0.0,97,0.00,,,0.00,weatherlink.com 1.10,2013-01-13 09:26:00,
2013-01-13 04:41:00,36.0,35.0,30.10,South,172,0.0,0.0,97,0.00,,,0.00,weatherlink.com 1.10,2013-01-13 09:41:00,
2013-01-13 04:56:00,35.9,35.0,30.09,South,172,0.0,1.0,96,0.00,,,0.00,weatherlink.com 1.10,2013-01-13 09:56:00,
2013-01-13 05:11:00,36.0,35.0,30.09,South,172,0.0,0.0,97,0.00,,,0.00,weatherlink.com 1.10,2013-01-13 10:11:00,
2013-01-13 05:26:00,36.0,35.0,30.08,South,172,0.0,0.0,97,0.00,,,0.00,weatherlink.com 1.10,2013-01-13 10:26:00,
2013-01-13 05:41:00,36.0,35.0,30.08,South,172,0.0,0.0,97,0.00,,,0.00,weatherlink.com 1.10,2013-01-13 10:41:00,
2013-01-13 05:56:00,36.0,35.0,30.08,South,172,0.0,0.0,97,0.00,,,0.00,weatherlink.com 1.10,2013-01-13 10:56:00,
2013-01-13 06:11:00,36.0,35.0,30.08,South,172,0.0,0.0,97,0.00,,,0.00,weatherlink.com 1.10,2013-01-13 11:11:00,
2013-01-13 06:26:00,35.9,35.0,30.08,South,172,0.0,0.0,97,0.00,,,0.00,weatherlink.com 1.10,2013-01-13 11:26:00,
2013-01-13 06:41:00,35.8,35.0,30.09,South,172,0.0,0.0,97,0.00,,,0.00,weatherlink.com 1.10,2013-01-13 11:41:00,
2013-01-13 06:56:00,35.7,35.0,30.10,South,172,0.0,0.0,97,0.00,,,0.00,weatherlink.com 1.10,2013-01-13 11:56:00,
2013-01-13 07:11:00,35.6,35.0,30.09,South,172,0.0,0.0,97,0.00,,,0.00,weatherlink.com 1.10,2013-01-13 12:11:00,
2013-01-13 07:26:00,35.5,35.0,30.09,South,172,0.0,0.0,97,0.00,,,0.00,weatherlink.com 1.10,2013-01-13 12:26:00,
2013-01-13 07:41:00,35.5,35.0,30.10,South,172,0.0,0.0,97,0.00,,,0.00,weatherlink.com 1.10,2013-01-13 12:41:00,
2013-01-13 07:56:00,35.7,35.0,30.10,South,172,0.0,0.0,97,0.00,,,0.00,weatherlink.com 1.10,2013-01-13 12:56:00,
2013-01-13 08:11:00,36.1,35.0,30.10,South,172,0.0,0.0,97,0.00,,,0.00,weatherlink.com 1.10,2013-01-13 13:11:00,
2013-01-13 08:26:00,36.5,36.0,30.11,South,172,0.0,0.0,97,0.00,,,0.00,weatherlink.com 1.10,2013-01-13 13:26:00,
2013-01-13 08:41:00,37.9,37.0,30.11,South,172,0.0,1.0,97,0.00,,,0.00,weatherlink.com 1.10,2013-01-13 13:41:00,
2013-01-13 08:56:00,38.9,38.0,30.11,SSW,200,0.0,2.0,97,0.00,,,0.00,weatherlink.com 1.10,2013-01-13 13:56:00,
2013-01-13 09:11:00,39.3,39.0,30.11,SE,124,0.0,2.0,97,0.00,,,0.00,weatherlink.com 1.10,2013-01-13 14:11:00,
2013-01-13 09:26:00,39.6,39.0,30.12,WNW,295,0.0,1.0,97,0.00,,,0.00,weatherlink.com 1.10,2013-01-13 14:26:00,
2013-01-13 09:41:00,39.9,39.0,30.12,SW,221,0.0,3.0,97,0.00,,,0.00,weatherlink.com 1.10,2013-01-13 14:41:00,
2013-01-13 09:57:00,40.4,40.0,30.12,West,265,0.0,1.0,97,0.00,,,0.00,weatherlink.com 1.10,2013-01-13 14:57:00,
2013-01-13 10:12:00,41.0,40.0,30.12,West,259,0.0,2.0,97,0.00,,,0.00,weatherlink.com 1.10,2013-01-13 15:12:00,
2013-01-13 10:27:00,41.5,41.0,30.12,West,269,0.0,3.0,97,0.00,,,0.00,weatherlink.com 1.10,2013-01-13 15:27:00,
2013-01-13 10:42:00,41.6,41.0,30.11,WSW,255,0.0,1.0,97,0.00,,,0.00,weatherlink.com 1.10,2013-01-13 15:42:00,
2013-01-13 10:57:00,41.8,41.0,30.11,South,181,0.0,1.0,97,0.00,,,0.00,weatherlink.com 1.10,2013-01-13 15:57:00,
2013-01-13 11:12:00,42.0,41.0,30.10,SSW,212,0.0,2.0,97,0.00,,,0.00,weatherlink.com 1.10,2013-01-13 16:12:00,
2013-01-13 11:27:00,42.0,41.0,30.09,South,177,0.0,3.0,97,0.00,,,0.00,weatherlink.com 1.10,2013-01-13 16:27:00,
2013-01-13 11:42:00,42.3,42.0,30.09,WSW,250,0.0,1.0,97,0.00,,,0.00,weatherlink.com 1.10,2013-01-13 16:42:00,
2013-01-13 11:57:00,42.4,42.0,30.09,ESE,102,2.0,3.0,97,0.00,,,0.00,weatherlink.com 1.10,2013-01-13 16:57:00,
2013-01-13 12:12:00,42.7,42.0,30.07,SE,129,2.0,4.0,97,0.00,,,0.00,weatherlink.com 1.10,2013-01-13 17:12:00,
2013-01-13 12:27:00,42.6,42.0,30.06,SE,129,3.0,3.0,96,0.00,,,0.00,weatherlink.com 1.10,2013-01-13 17:27:00,
2013-01-13 12:42:00,42.7,42.0,30.05,SE,124,0.0,1.0,97,0.00,,,0.00,weatherlink.com 1.10,2013-01-13 17:42:00,
2013-01-13 12:57:00,42.7,42.0,30.05,ESE,120,0.0,4.0,96,0.00,,,0.00,weatherlink.com 1.10,2013-01-13 17:57:00,
2013-01-13 13:12:00,42.5,42.0,30.05,West,259,1.0,2.0,96,0.00,,,0.00,weatherlink.com 1.10,2013-01-13 18:12:00,
2013-01-13 13:27:00,42.4,42.0,30.04,NW,321,0.0,1.0,97,0.00,,,0.00,weatherlink.com 1.10,2013-01-13 18:27:00,
2013-01-13 13:42:00,42.3,42.0,30.04,ESE,123,0.0,3.0,97,0.00,,,0.00,weatherlink.com 1.10,2013-01-13 18:42:00,
2013-01-13 13:57:00,42.2,41.0,30.02,South,176,1.0,2.0,97,0.00,,,0.00,weatherlink.com 1.10,2013-01-13 18:57:00,
2013-01-13 14:12:00,42.2,41.0,30.02,ESE,111,0.0,2.0,97,0.00,,,0.00,weatherlink.com 1.10,2013-01-13 19:12:00,
2013-01-13 14:27:00,42.3,42.0,30.03,NE,37,0.0,2.0,97,0.00,,,0.00,weatherlink.com 1.10,2013-01-13 19:27:00,
2013-01-13 14:42:00,42.4,42.0,30.04,ENE,74,1.0,3.0,97,0.00,,,0.00,weatherlink.com 1.10,2013-01-13 19:42:00,
2013-01-13 14:57:00,42.8,42.0,30.01,ENE,60,0.0,1.0,97,0.00,,,0.00,weatherlink.com 1.10,2013-01-13 19:57:00,
2013-01-13 15:12:00,43.0,42.0,30.02,WSW,252,0.0,1.0,97,0.00,,,0.00,weatherlink.com 1.10,2013-01-13 20:12:00,
2013-01-13 15:27:00,42.9,42.0,30.02,East,79,0.0,1.0,97,0.00,,,0.00,weatherlink.com 1.10,2013-01-13 20:27:00,
2013-01-13 15:42:00,42.6,42.0,30.02,SE,127,0.0,2.0,97,0.00,,,0.00,weatherlink.com 1.10,2013-01-13 20:42:00,
2013-01-13 15:57:00,42.5,42.0,30.02,SW,235,0.0,2.0,97,0.00,,,0.00,weatherlink.com 1.10,2013-01-13 20:57:00,
2013-01-13 16:12:00,42.3,42.0,30.02,West,263,0.0,1.0,97,0.00,,,0.00,weatherlink.com 1.10,2013-01-13 21:12:00,
2013-01-13 16:27:00,42.3,42.0,30.00,ESE,107,0.0,2.0,97,0.00,,,0.00,weatherlink.com 1.10,2013-01-13 21:27:00,
2013-01-13 16:42:00,42.3,42.0,30.00,ENE,77,0.0,2.0,97,0.00,,,0.00,weatherlink.com 1.10,2013-01-13 21:42:00,
2013-01-13 16:57:00,42.1,41.0,30.02,SE,124,0.0,2.0,97,0.00,,,0.00,weatherlink.com 1.10,2013-01-13 21:57:00,
2013-01-13 17:12:00,41.9,41.0,30.01,ESE,122,0.0,2.0,97,0.00,,,0.00,weatherlink.com 1.10,2013-01-13 22:12:00,
2013-01-13 17:27:00,41.6,41.0,30.00,ESE,105,0.0,1.0,97,0.00,,,0.00,weatherlink.com 1.10,2013-01-13 22:27:00,
2013-01-13 17:42:00,41.5,41.0,30.02,SE,124,0.0,2.0,97,0.00,,,0.00,weatherlink.com 1.10,2013-01-13 22:42:00,
2013-01-13 17:57:00,41.1,40.0,30.02,ESE,112,0.0,1.0,97,0.00,,,0.00,weatherlink.com 1.10,2013-01-13 22:57:00,
2013-01-13 18:12:00,41.2,40.0,30.00,SE,125,0.0,3.0,97,0.00,,,0.00,weatherlink.com 1.10,2013-01-13 23:12:00,
2013-01-13 18:27:00,41.2,40.0,30.01,SE,127,0.0,4.0,97,0.00,,,0.00,weatherlink.com 1.10,2013-01-13 23:27:00,
2013-01-13 18:42:00,41.4,41.0,30.02,West,276,0.0,1.0,97,0.00,,,0.00,weatherlink.com 1.10,2013-01-13 23:42:00,
2013-01-13 18:57:00,41.6,41.0,30.02,East,93,0.0,3.0,97,0.00,,,0.00,weatherlink.com 1.10,2013-01-13 23:57:00,
2013-01-13 19:12:00,41.9,41.0,30.02,SE,127,0.0,1.0,97,0.00,,,0.00,weatherlink.com 1.10,2013-01-14 00:12:00,
2013-01-13 19:27:00,41.9,41.0,30.02,ESE,120,0.0,2.0,97,0.00,,,0.00,weatherlink.com 1.10,2013-01-14 00:27:00,
2013-01-13 19:42:00,41.4,41.0,30.01,ESE,121,0.0,0.0,97,0.00,,,0.00,weatherlink.com 1.10,2013-01-14 00:42:00,
2013-01-13 19:57:00,41.4,41.0,30.01,SSE,152,0.0,1.0,97,0.00,,,0.00,weatherlink.com 1.10,2013-01-14 00:57:00,
2013-01-13 20:12:00,41.4,41.0,30.01,East,96,0.0,1.0,97,0.00,,,0.00,weatherlink.com 1.10,2013-01-14 01:12:00,
2013-01-13 20:27:00,42.1,41.0,30.00,WSW,245,0.0,2.0,97,0.00,,,0.00,weatherlink.com 1.10,2013-01-14 01:27:00,
2013-01-13 20:42:00,41.8,41.0,30.00,ESE,118,0.0,1.0,97,0.00,,,0.00,weatherlink.com 1.10,2013-01-14 01:42:00,
2013-01-13 20:57:00,42.0,41.0,29.99,NNE,15,0.0,1.0,97,0.00,,,0.00,weatherlink.com 1.10,2013-01-14 01:57:00,
2013-01-13 21:12:00,41.9,41.0,29.98,NW,325,0.0,1.0,97,0.00,,,0.00,weatherlink.com 1.10,2013-01-14 02:12:00,
2013-01-13 21:27:00,41.5,41.0,29.98,NW,325,0.0,0.0,97,0.00,,,0.00,weatherlink.com 1.10,2013-01-14 02:27:00,
2013-01-13 21:42:00,41.6,41.0,29.98,SW,214,0.0,1.0,97,0.00,,,0.00,weatherlink.com 1.10,2013-01-14 02:42:00,
2013-01-13 21:57:00,41.9,41.0,29.98,West,274,1.0,1.0,97,0.00,,,0.00,weatherlink.com 1.10,2013-01-14 02:57:00,
2013-01-13 22:12:00,42.1,41.0,29.98,East,94,0.0,3.0,97,0.00,,,0.00,weatherlink.com 1.10,2013-01-14 03:12:00,
2013-01-13 22:27:00,41.9,41.0,29.99,SSW,207,0.0,2.0,97,0.00,,,0.00,weatherlink.com 1.10,2013-01-14 03:27:00,
2013-01-13 22:43:00,42.2,42.0,29.98,SSW,204,0.0,2.0,98,0.00,,,0.00,weatherlink.com 1.10,2013-01-14 03:43:00,
2013-01-13 22:57:00,42.2,42.0,29.98,ESE,105,0.0,2.0,98,0.00,,,0.00,weatherlink.com 1.10,2013-01-14 03:57:00,
2013-01-13 23:12:00,42.3,42.0,29.98,SSW,193,0.0,5.0,98,0.00,,,0.00,weatherlink.com 1.10,2013-01-14 04:12:00,
2013-01-13 23:27:00,42.1,41.0,29.98,East,84,3.0,3.0,97,0.00,,,0.00,weatherlink.com 1.10,2013-01-14 04:27:00,
2013-01-13 23:43:00,42.2,42.0,29.98,WSW,252,2.0,4.0,98,0.00,,,0.00,weatherlink.com 1.10,2013-01-14 04:43:00,
2013-01-13 23:58:00,42.0,41.0,29.97,South,183,0.0,1.0,97,0.00,,,0.00,weatherlink.com 1.10,2013-01-14 04:58:00,